Powrót do katalogu

STARLINK-5459

AktywnyŁącznośćVLEO
NORAD 55669·PAYLOAD·🇺🇸 United States

Wystrzelony Feb 17, 2023 z Vandenberg Space Force Base

Loading…

Następne Przeloty (najbliższe 24 godziny)

TLE

ŚwieżeSource: CelesTrak SupGP

Epoka: Sep 15, 2026, 02:39 UTC

1 55669C 23021AT  26258.11090278 -.00036045  00000+0 -30217-2 0  2582
2 55669  70.0021  46.8669 0003272 269.2077 239.2783 14.98335443    18

Śledź STARLINK-5459 w czasie rzeczywistym z AllMySat

Download on the App Store